Weather History for Baker, OR

Change the Weather History Date:

Saturday, February 9, 2013

  Actual Average Record
Temperature  
Mean Temperature 34 °F 28 °F  
Max Temperature 39 °F 38 °F 57 °F (1970)
Min Temperature 28 °F 18 °F -22 °F (1989)
Degree Days  
Heating Degree Days 31 37  
Month to date heating degree days 309 340  
Since 1 July heating degree days 4762 4863  
Cooling Degree Days 0 0  
Month to date cooling degree days 0 0  
Year to date cooling degree days 0 0  
Moisture  
Dew Point 24 °F    
Average Humidity 68    
Maximum Humidity 82    
Minimum Humidity 54    
Precipitation  
Precipitation T in 0.02 in 0.31 in (1988)
Month to date precipitation 0.19 0.19  
Year to date precipitation 1.03 0.99  
Sea Level Pressure  
Sea Level Pressure 30.07 in    
Wind  
Wind Speed 15 mph (NW)    
Max Wind Speed 26 mph    
Max Gust Speed 33 mph    
Visibility 10 miles    
Events      
T = Trace of Precipitation, MM = Missing Value Source: NWS Daily Summary

Daily Weather History Graph

Daily Weather History Graph

Search for Another Location

Airport:

Trip Planner

Search our weather history database for the weather conditions in past years. The results will help you decide how hot, cold, wet, or windy it might be!

Date:

Astronomy

Feb. 09, 2013 Rise Set
Actual Time 7:00 AM PST 5:11 PM PST
Civil Twilight 6:29 AM PST 5:42 PM PST
Nautical Twilight 5:54 AM PST 6:16 PM PST
Astronomical Twilight 5:20 AM PST 6:50 PM PST
Moon 6:14 AM PST (2/9) 5:01 PM PST (2/9)
Length of Visible Light 11h 12m
Length of Day
10h 11m
Waning Crescent, 0% of the Moon is Illuminated
Feb 9
Waning Crescent
Feb 9
New
Feb 17
First Quarter
Feb 25
Full
Mar 4
Last Quarter

Hourly Weather History & Observations

Time (PST) Temp. Windchill Dew Point Humidity Pressure Visibility Wind Dir Wind Speed Gust Speed Precip Events Conditions
12:53 AM 28.9 °F 15.8 °F 21.0 °F 72% 30.07 in 10.0 mi NW 20.7 mph - N/A   Clear
1:53 AM 28.9 °F 15.4 °F 21.0 °F 72% 30.06 in 10.0 mi WNW 21.9 mph - N/A   Clear
2:53 AM 30.0 °F 17.2 °F 21.0 °F 69% 30.05 in 10.0 mi NW 20.7 mph - N/A   Scattered Clouds
3:53 AM 28.9 °F 16.9 °F 21.9 °F 75% 30.05 in 10.0 mi NW 17.3 mph - N/A   Overcast
4:53 AM 28.9 °F 18.2 °F 21.9 °F 75% 30.06 in 10.0 mi NW 13.8 mph - N/A   Overcast
5:53 AM 28.9 °F 16.9 °F 21.9 °F 75% 30.06 in 10.0 mi NW 17.3 mph - N/A   Overcast
6:53 AM 28.9 °F 17.3 °F 21.0 °F 72% 30.07 in 10.0 mi NNW 16.1 mph - N/A   Overcast
7:53 AM 30.0 °F 18.7 °F 21.9 °F 72% 30.08 in 10.0 mi NNW 16.1 mph - N/A   Partly Cloudy
8:53 AM 28.9 °F 17.7 °F 21.0 °F 72% 30.09 in 10.0 mi NW 15.0 mph - N/A   Clear
9:53 AM 33.1 °F 21.9 °F 23.0 °F 66% 30.07 in 10.0 mi NW 18.4 mph - N/A   Clear
10:53 AM 34.0 °F 22.7 °F 24.1 °F 67% 30.07 in 10.0 mi NW 19.6 mph - N/A   Clear
11:53 AM 36.0 °F 25.0 °F 24.1 °F 62% 30.04 in 10.0 mi NW 20.7 mph - N/A   Overcast
12:53 PM 37.0 °F 28.1 °F 26.1 °F 65% 30.04 in 10.0 mi NW 15.0 mph - N/A   Overcast
1:53 PM 39.0 °F 30.6 °F 25.0 °F 57% 30.04 in 10.0 mi NNW 15.0 mph - N/A   Mostly Cloudy
2:53 PM 37.9 °F 28.5 °F 24.1 °F 57% 30.04 in 10.0 mi NNW 17.3 mph 25.3 mph N/A   Clear
3:53 PM 36.0 °F 26.3 °F 24.1 °F 62% 30.04 in 10.0 mi NNW 16.1 mph 25.3 mph N/A   Overcast
4:53 PM 35.1 °F 25.9 °F 24.1 °F 64% 30.06 in 10.0 mi NNW 13.8 mph - N/A   Clear
5:53 PM 33.1 °F 26.9 °F 24.1 °F 70% 30.08 in 10.0 mi North 6.9 mph - N/A   Mostly Cloudy
6:53 PM 33.1 °F 26.9 °F 25.0 °F 72% 30.09 in 10.0 mi North 6.9 mph - N/A   Overcast
7:53 PM 33.1 °F 26.1 °F 26.1 °F 75% 30.10 in 10.0 mi NNW 8.1 mph - N/A   Overcast
8:53 PM 33.1 °F 23.9 °F 28.0 °F 82% 30.12 in 10.0 mi NNW 12.7 mph - 0.00 in   Overcast
9:53 PM 33.1 °F 23.9 °F 28.0 °F 82% 30.12 in 10.0 mi NNW 12.7 mph - N/A   Overcast
10:53 PM 33.1 °F 23.4 °F 28.0 °F 82% 30.12 in 10.0 mi NNW 13.8 mph - N/A   Overcast
11:53 PM 30.9 °F 20.7 °F 27.0 °F 85% 30.13 in 10.0 mi NW 13.8 mph - N/A   Partly Cloudy